Weather in Krasnaya Niva

Russia / Kurgan Oblast     56°01′13″N   63°38′55″E
temp.,
°C
wind,
m/s
gust,
m/s
humid.,
%
clouds,
%
prec.,
mm/h
press.,
hPa
HPBL,
m
11 april, sun
sun1123:00+1s4109485 0.0 1038199
02:00+1s5119655 0.0 1038226
05:00+1s51295100 0.0 1038284
08:00+3ssw51294100 0.0 1037391
11:00+6ssw7128779 0.0 1037452
14:00+9ssw71177100 0.0 1035561
17:00+9ssw6137969 0.0 1035511
20:00+6ssw512865 0.0 1034254
12 april, mon
mon1223:00+5ssw5128828 0.0 1034211
02:00+4sw489290 0.0 1034133
05:00+4w3590100 0.0 103466
08:00+7w3691100 0.0 1034134
11:00+7nw2497100 0.1 1036112
14:00+9nw3585100 0.1 1036425
17:00+11n3563100 0.1 1037321
20:00+8n3680100 0.0 103889
13 april, tue
tue1323:00+6nne3479100 0.0 103964
02:00+4ne22720 0.0 104011
05:00+3ene22690 0.0 104110
08:00+5ese11645 0.0 104160
11:00+9sse22490 0.0 1041459
14:00+12ssw33400 0.0 1039847
17:00+13sw34440 0.0 1037881
20:00+10ssw33650 0.0 103627
14 april, wed
wed1423:00+8ssw36751 0.0 103579
02:00+7ssw488030 0.0 1034128
05:00+6ssw498388 0.0 1033145
08:00+8sw4108137 0.0 1032248
11:00+14wsw456963 0.0 1031483
14:00+17wsw565467 0.0 10291101
17:00+17wsw565118 0.0 10271267
20:00+13wsw34675 0.0 102641
15 april, thu
thu1523:00+11wsw46765 0.0 102577
02:00+9w348061 0.0 102445
05:00+7w347472 0.0 102346
08:00+9w37696 0.0 1023174
11:00+14w45475 0.0 1021576
14:00+17w45375 0.0 10201128
17:00+17w44375 0.0 10181123
20:00+13wsw22535 0.0 101811